Retour au catalogue

STARLINK-36865

ActifCommunicationsVLEO
NORAD 67930·PAYLOAD·🇺🇸 United States

Lancé Feb 22, 2026 depuis Vandenberg Space Force Base

Loading…

Prochains Passages (prochaines 24 heures)

TLE

FraisSource: CelesTrak SupGP

Époque: Sep 15, 2026, 02:56 UTC

1 67930C 26036AC  26258.12270833 -.00023852  00000+0 -86409-3 0  2580
2 67930  43.0007 255.1411 0001187 264.4369 208.4830 15.27584453    11

Suivez STARLINK-36865 en temps réel avec AllMySat

Download on the App Store